Location: Alma
(34.4195°N, 97.6123°W)
Time: 15:30:23
(UTC+00:00)

N. Korean satellite - Visible Passes

Search period start: 27 November 2022 00:00
Search period end: 07 December 2022 00:00
Orbit: 422 x 454 km, 97.3° (Epoch: 26 November)

Date Brightness Start Highest point End Pass type
(mag) Time Alt. Az. Time Alt. Az. Time Alt. Az.
27 Nov 8.6 11:13:23 10° NE 11:16:21 27° E 11:19:17 10° SSE visible
27 Nov 8.3 12:47:05 10° NW 12:48:33 12° WNW 12:50:01 10° W visible
28 Nov 6.8 12:06:57 10° N 12:10:11 41° WNW 12:13:23 10° SW visible
29 Nov 10.0 00:07:13 10° WSW 00:08:24 11° W 00:09:36 10° WNW visible
29 Nov 7.5 11:28:16 10° NNE 11:31:34 46° E 11:34:49 10° S visible
30 Nov 9.8 10:51:06 10° ENE 10:52:43 13° E 10:54:19 10° ESE visible
30 Nov 7.4 12:22:23 10° NNW 12:25:13 25° WNW 12:28:02 10° SW visible
01 Dec 6.4 11:43:12 10° NNE 11:46:37 82° ESE 11:49:59 10° S visible
02 Dec 9.1 11:05:10 10° NE 11:07:47 20° E 11:10:21 10° SE visible
02 Dec 8.0 12:37:57 10° NNW 12:40:05 16° WNW 12:42:12 10° WSW visible
03 Dec 6.4 11:58:09 10° N 12:01:30 57° WNW 12:04:48 10° SSW visible
03 Dec 9.7 23:57:26 10° SW 23:59:32 16° W 00:01:39 10° NW visible
04 Dec 8.2 11:19:34 10° NNE 11:22:40 33° E 11:25:43 10° SSE visible
05 Dec 7.0 12:13:07 10° N 12:16:12 33° WNW 12:19:14 10° SW visible
06 Dec 7.0 11:34:03 10° NNE 11:37:23 56° E 11:40:39 10° S visible
